Regional Weather Roundup
Issued by NWS

Home | Current Version | Previous Version | Text Only | Print | Product List | Glossary Off
Versions: 1 2 3 4 5 6 7 8 9 10 11 12 13 14 15 16 17 18 19 20 21 22 23 24 25 26 27 28 29 30 31 32 33 34 35 36 37 38 39 40 41 42 43 44 45 46 47 48 49 50

000
ASUS43 KLOT 262100
RWRIL

ILLINOIS REGIONAL WEATHER ROUNDUP
NATIONAL WEATHER SERVICE CHICAGO/ROMEOVILLE IL
300 PM CST FRI DEC 26 2014

NOTE: "FAIR" INDICATES FEW OR NO CLOUDS BELOW 12,000 FEET WITH NO
SIGNIFICANT WEATHER AND/OR OBSTRUCTIONS TO VISIBILITY.

* THESE STATIONS ARE NOT UNDER NWS QUALITY CONTROL. THEY ALSO MAY NOT
  REPORT WEATHER SUCH AS PRECIPITATION OR FOG.

ILZ001-002-007-009-015-016-024-262200-
NORTHWEST ILLINOIS

CITY           SKY/WX    TMP DP  RH WIND       PRES   REMARKS
MOLINE         SUNNY     52  37  56 SW8       29.95R
STERLING*      PTSUNNY   54  39  58 W8        29.97R
$$

ILZ003-004-008-010-011-017-018-262200-
NORTH CENTRAL ILLINOIS

CITY           SKY/WX    TMP DP  RH WIND       PRES   REMARKS
ROCKFORD       CLOUDY    50  37  61 SW9       29.99R
FREEPORT*      PTSUNNY   48  36  64 SW7       29.97S
$$

ILZ005-006-012>014-019>023-262200-
NORTHEAST ILLINOIS

CITY           SKY/WX    TMP DP  RH WIND       PRES   REMARKS
CHICAGO-OHARE  PTSUNNY   49  38  65 S10       29.98S
CHICAGO-MIDWAY PTSUNNY   51  39  63 SW13      30.00S
AURORA         MOSUNNY   51  39  63 S10       29.99S
WAUKEGAN       PTSUNNY   49  36  61 S12       29.98R
DUPAGE AIRPORT MOSUNNY   49  39  68 S12       29.98S
WHEELING       PTSUNNY   49  37  63 S10       30.00R
NORTHERLY ISL    N/A     49  37  63 SW9         N/A
$$

LMZ740>746-262200-
SOUTHERN LAKE MICHIGAN

STATION/POSITION SKY/WX   TEMP    WIND        PRES    VSBY  WAVE
                          AIR SEA DIR/SP/G                  HT/PER
                          (F)     (DEG/KT/KT) (MB)    (MI)  (FT/S)
WAUKEGAN HARBOR            49     210/ 13/ 15   N/A
HARRISON CRIB              48     190/ 14/ 15   N/A
BURNHAM HARBOR             50     190/ 11/ 14   N/A
CALUMET HARBOR             49     190/  8/ 12 1014.7F
MICHIGAN CITY              48     180/ 13/ 16   N/A
$$

ILZ025>027-034>036-040-047-049-050-058-095>099-262200-
WEST-CENTRAL ILLINOIS

CITY           SKY/WX    TMP DP  RH WIND       PRES   REMARKS
QUINCY         PTSUNNY   54  42  64 SW6       29.96S
MACOMB*        MOSUNNY   52  42  69 SW8       29.99R
$$

ILZ028>032-037-038-041>044-048-051>054-059>061-262200-
CENTRAL ILLINOIS

CITY           SKY/WX    TMP DP  RH WIND       PRES   REMARKS
DECATUR        PTSUNNY   54  44  69 S14       30.05R
PEORIA         MOSUNNY   54  40  59 SW9       29.99S
LINCOLN*       MOSUNNY   55  44  65 S13       30.01S
SPRINGFIELD    MOSUNNY   55  43  63 S15       30.02S
TAYLORVILLE    NOT AVBL
$$

ILZ033-039-045-046-055>057-062-063-262200-
EAST-CENTRAL ILLINOIS

CITY           SKY/WX    TMP DP  RH WIND       PRES   REMARKS
CHAMPAIGN      MOSUNNY   53  44  71 S17       30.05R
DANVILLE*      CLOUDY    49  43  78 S14       30.04R
MATTOON        MOSUNNY   52  43  71 S15G21    30.06S
$$

ILZ079-100>102-262200-
SOUTHWEST ILLINOIS

CITY           SKY/WX    TMP DP  RH WIND       PRES   REMARKS
ALTON          MOSUNNY   57  43  58 S16       30.02F
BELLEVILLE     MOSUNNY   58  46  64 S17       30.03F
CAHOKIA*       SUNNY     60  44  55 S10       30.02F
SPARTA*        SUNNY     54  44  69 S14G21    30.07S
$$

ILZ064>066-069>071-074>076-080>082-084>086-088>090-092>094-262200-
SOUTH-CENTRAL ILLINOIS

CITY           SKY/WX    TMP DP  RH WIND       PRES   REMARKS
CARBONDALE     PTSUNNY   53  42  66 S15G22    30.11S
MARION         PTSUNNY   55  43  62 SW12      30.12F
MT. VERNON     SUNNY     55  43  62 S17G26    30.10S
SALEM*         SUNNY     57  45  64 S13       30.07F
$$

ILZ067-068-072-073-078-083-087-091-262200-
SOUTHEAST ILLINOIS

CITY           SKY/WX    TMP DP  RH WIND       PRES   REMARKS
LAWRENCEVILLE  PTSUNNY   56  43  61 S15       30.12S
ROBINSON*      PTSUNNY   55  44  67 S12       30.11S
CARMI*         MOSUNNY   58  46  64 S14G22    30.13R
$$

ABBREVIATIONS USED IN REMARKS
   TC - TEMPERATURE IN CELSIUS
  WCI - WIND CHILL INDEX
   HX - HEAT INDEX
  VSB - VISIBILITY
$$



USA.gov is the U.S. government's official web portal to all federal, state and local government web resources and services.